Impacts TAF Board INFO
FOR SITUATIONAL AWARENESS. NOT TO BE USED FOR FLIGHT PLANNING PURPOSES.
IDs:

KLAS - Las Vegas/McCarran I, NV, US

Issued at 1726 UTC 16 Dec 2017
Updated at 1850 UTC 16 Dec 2017
Potential Impact None Slight Moderate High
Time1756Z 16/19Z 16/20Z 16/21Z 16/22Z 16/23Z 17/00Z 17/01Z 17/02Z 17/03Z 17/04Z 17/05Z 17/06Z 17/07Z>>
Type OBS PRVL PRVL PRVL PRVL PRVL PRVL PRVL PRVL PRVL PRVL PRVL PRVL PRVL
VIS 10 >6 >6 >6 >6 >6 >6 >6 >6 >6 >6 >6 >6 >6
CIG 150 120 120 120 120 120 100 100 100 120 120 120 120 120
Cover BKN OVC BKN BKN BKN BKN BKN BKN BKN BKN BKN BKN BKN BKN
FltCat VFR VFR VFR VFR VFR VFR VFR VFR VFR VFR VFR VFR VFR VFR
WX -- -- -- -- -- -- -- -- -- -- -- -- -- --
WDir VRB VRB 40 40 40 40 350 350 350 350 350 350 350 350
WSpd 0 5 6 6 6 6 10 10 10 14 14 14 14 14
WGst -- -- -- -- -- -- -- -- -- 24 24 24 24 24

Raw TAF
KLAS 161726Z 1618/1724 VRB05KT P6SM BKN120 OVC150
  FM162000 04006KT P6SM SCT100 BKN120
  FM170000 35010KT P6SM SCT080 BKN100
  FM170300 35014G24KT P6SM SCT080 BKN120
  FM171100 35012KT P6SM SCT080 BKN250
  FM171600 34014G22KT P6SM FEW080 SCT250


Raw METAR
KLAS 161756Z 00000KT 10SM FEW120 BKN150 11/M08 A2979 RMK AO2 SLP085 T01061078 10106 20072 51003
KLAS 161656Z 17003KT 10SM BKN150 OVC200 09/M08 A2979 RMK AO2 SLP084 T00941078
KLAS 161556Z 00000KT 10SM SCT150 BKN200 08/M08 A2979 RMK AO2 SLP084 T00831083

METAR Board
Radar Display
Forecast Discussion

FOR SITUATIONAL AWARENESS. NOT TO BE USED FOR FLIGHT PLANNING PURPOSES.